EW8542 Weather Reports


time (UTC)temp
C
wind
direction
speed
KPH
gust
KPH
rain 1hr
cm
rain 24hr
cm
rain mn
cm
humidity
%
barometer
mb
20260506102705 14 55 11.3 20.9 0.00 0.00 0.00 60 1009.9
20260506102205 14 26 11.3 19.3 0.00 0.00 0.00 59 1009.8
20260506101705 14 49 8.0 16.1 0.00 0.00 0.00 60 1009.9
20260506101205 14 37 14.5 22.5 0.00 0.00 0.00 59 1009.8
20260506100705 14 56 9.7 20.9 0.00 0.00 0.00 59 1009.8
20260506100205 14 15 11.3 19.3 0.00 0.00 0.00 59 1009.9
20260506095706 14 52 11.3 19.3 0.00 0.00 0.00 58 1009.9
20260506095205 14 29 16.1 24.1 0.00 0.00 0.00 58 1009.9
20260506094705 14 99 9.7 19.3 0.00 0.00 0.00 58 1009.9
20260506094205 13 36 8.0 20.9 0.00 0.00 0.00 59 1009.9
20260506093705 13 71 11.3 22.5 0.00 0.00 0.00 59 1010.0
20260506093205 13 47 11.3 20.9 0.00 0.00 0.00 58 1010.1
20260506092705 13 67 11.3 19.3 0.00 0.00 0.00 58 1010.1
20260506092205 13 59 14.5 22.5 0.00 0.00 0.00 58 1010.1
20260506091204 13 50 11.3 24.1 0.00 0.00 0.00 55 1010.2
20260506090705 13 29 11.3 24.1 0.00 0.00 0.00 55 1010.2
20260506090205 13 37 12.9 25.7 0.00 0.00 0.00 55 1010.1
20260506073205 12 90 12.9 19.3 0.00 0.00 0.00 61 1009.9
20260506072205 12 63 12.9 20.9 0.00 0.00 0.00 66 1009.8
20260506071705 12 62 9.7 19.3 0.00 0.00 0.00 66 1009.8
20260506071205 11 56 11.3 20.9 0.00 0.00 0.00 67 1009.8
20260506070705 11 76 9.7 19.3 0.00 0.00 0.00 68 1009.8
20260506062205 10 58 14.5 22.5 0.00 0.00 0.00 81 1009.8
20260506061705 10 56 8.0 19.3 0.00 0.00 0.00 85 1009.8
20260506061205 10 59 6.4 19.3 0.00 0.00 0.00 87 1009.8
20260506060205 9 39 4.8 12.9 0.00 0.00 0.00 87 1009.8
20260506051205 6 44 1.6 4.8 0.00 0.00 0.00 89 1009.9
20260506050705 6 30 4.8 8.0 0.00 0.00 0.00 89 1009.9
20260506050205 6 42 3.2 8.0 0.00 0.00 0.00 89 1009.9
20260506044705 5 32 4.8 8.0 0.00 0.00 0.00 90 1009.9
20260506043205 5 344 3.2 4.8 0.00 0.00 0.00 90 1009.9
20260506042705 5 337 3.2 4.8 0.00 0.00 0.00 90 1009.9
20260506041705 5 0 3.2 4.8 0.00 0.00 0.00 90 1010.0
20260506041205 5 0 3.2 8.0 0.00 0.00 0.00 90 1010.0
20260506040705 5 31 3.2 8.0 0.00 0.00 0.00 90 1010.0
20260506040205 5 30 3.2 4.8 0.00 0.00 0.00 90 1010.0
20260506035705 5 15 4.8 8.0 0.00 0.00 0.00 90 1010.0
20260506035205 5 11 3.2 8.0 0.00 0.00 0.00 90 1010.0
20260506034705 5 15 3.2 8.0 0.00 0.00 0.00 90 1010.0
20260506034205 5 16 3.2 9.7 0.00 0.00 0.00 90 1010.0
20260506033205 5 26 3.2 8.0 0.00 0.00 0.00 90 1010.0
20260506032705 5 27 3.2 8.0 0.00 0.00 0.00 90 1010.1
20260506032205 4 22 4.8 11.3 0.00 0.00 0.00 89 1010.1
20260506031705 4 15 3.2 11.3 0.00 0.00 0.00 89 1010.1
20260506031205 4 16 3.2 8.0 0.00 0.00 0.00 89 1010.2
20260506030205 4 29 4.8 8.0 0.00 0.00 0.00 89 1010.2
20260506025705 4 17 3.2 4.8 0.00 0.00 0.00 88 1010.2
20260506025204 5 23 3.2 8.0 0.00 0.00 0.00 88 1010.1
20260506024705 5 358 4.8 9.7 0.00 0.00 0.00 89 1010.1
20260506024205 5 0 4.8 12.9 0.00 0.00 0.00 88 1010.1
20260506023705 5 32 4.8 8.0 0.00 0.00 0.00 88 1010.2
20260506023205 5 35 4.8 9.7 0.00 0.00 0.00 88 1010.2
20260506022704 5 24 4.8 8.0 0.00 0.00 0.00 88 1010.2
20260506022204 5 31 4.8 8.0 0.00 0.00 0.00 88 1010.3
20260506021705 5 14 4.8 8.0 0.00 0.00 0.00 88 1010.3
20260506021205 5 3 4.8 9.7 0.00 0.00 0.00 87 1010.3
20260506020705 5 40 3.2 8.0 0.00 0.00 0.00 87 1010.4
20260506020205 5 35 4.8 8.0 0.00 0.00 0.00 87 1010.4
20260506015705 5 358 3.2 9.7 0.00 0.00 0.00 87 1010.5
20260506015205 5 355 3.2 4.8 0.00 0.00 0.00 87 1010.4
20260506014704 5 10 4.8 8.0 0.00 0.00 0.00 86 1010.3
20260506014205 5 340 3.2 8.0 0.00 0.00 0.00 86 1010.3
20260506013205 5 23 3.2 8.0 0.00 0.00 0.00 86 1010.3
20260506012205 5 350 4.8 12.9 0.00 0.00 0.00 87 1010.3
20260506011705 5 349 4.8 4.8 0.00 0.00 0.00 87 1010.3
20260506011204 5 0 1.6 4.8 0.00 0.00 0.00 88 1010.3
20260506010705 5 6 3.2 4.8 0.00 0.00 0.00 88 1010.2
20260506010205 5 357 3.2 4.8 0.00 0.00 0.00 88 1010.3
20260506005705 5 335 3.2 4.8 0.00 0.00 0.00 88 1010.3
20260506005205 5 62 0.0 0.0 0.00 0.00 0.00 88 1010.3
20260506004705 6 64 0.0 0.0 0.00 0.00 0.00 87 1010.2
20260506004205 6 64 0.0 0.0 0.00 0.00 0.00 88 1010.2
20260506003705 6 64 0.0 1.6 0.00 0.00 0.00 88 1010.1
20260506003205 6 64 3.2 4.8 0.00 0.00 0.00 88 1010.1
20260506002704 6 45 1.6 4.8 0.00 0.00 0.00 89 1010.1
20260506002205 6 45 1.6 4.8 0.00 0.00 0.00 89 1010.1
20260506001704 6 45 1.6 4.8 0.00 0.00 0.00 88 1010.1
20260506001204 6 45 3.2 4.8 0.00 0.00 0.00 88 1010.1
20260506000705 6 45 3.2 4.8 0.00 0.00 0.00 88 1010.2
20260506000205 6 45 1.6 4.8 0.00 0.00 0.00 88 1010.2
20260505235205 6 45 3.2 4.8 0.00 0.00 0.00 88 1010.2
20260505234704 6 45 3.2 4.8 0.00 0.00 0.00 88 1010.2
20260505234205 6 36 3.2 4.8 0.00 0.00 0.00 88 1010.2
20260505233205 6 35 1.6 4.8 0.00 0.00 0.00 87 1010.2
20260505232704 6 35 3.2 4.8 0.00 0.00 0.00 87 1010.2
20260505232205 6 35 1.6 4.8 0.00 0.00 0.00 86 1010.2
20260505231705 7 36 1.6 3.2 0.00 0.00 0.00 86 1010.3
20260505231205 7 35 1.6 4.8 0.00 0.00 0.00 87 1010.2
20260505230705 7 19 1.6 4.8 0.00 0.00 0.00 87 1010.2
20260505230205 7 12 1.6 4.8 0.00 0.00 0.00 87 1010.3
20260505225705 7 11 3.2 8.0 0.00 0.00 0.00 88 1010.3
20260505225205 7 34 3.2 4.8 0.00 0.00 0.00 88 1010.3
20260505224704 7 11 3.2 4.8 0.00 0.00 0.00 87 1010.4
20260505224205 7 22 1.6 3.2 0.00 0.00 0.00 87 1010.3
20260505223705 7 22 1.6 3.2 0.00 0.00 0.00 87 1010.4
20260505223205 7 22 1.6 4.8 0.00 0.00 0.00 86 1010.3
20260505221204 8 346 3.2 4.8 0.00 0.00 0.00 86 1010.4
20260505220707 8 55 1.6 4.8 0.00 0.00 0.00 86 1010.4
20260505220204 8 94 1.6 1.6 0.00 0.00 0.00 85 1010.2
20260505215705 8 94 0.0 1.6 0.00 0.00 0.00 85 1010.3
20260505215205 8 94 0.0 1.6 0.00 0.00 0.00 85 1010.3
20260505214705 8 94 0.0 0.0 0.00 0.00 0.00 85 1010.4
20260505214205 8 94 0.0 0.0 0.00 0.00 0.00 84 1010.4
20260505213204 9 94 0.0 0.0 0.00 0.00 0.00 84 1010.4
20260505212704 9 94 0.0 0.0 0.00 0.00 0.00 84 1010.4
20260505212205 9 94 0.0 0.0 0.00 0.00 0.00 84 1010.4
20260505211704 9 94 0.0 0.0 0.00 0.00 0.00 84 1010.4
20260505211205 9 94 0.0 0.0 0.00 0.00 0.00 83 1010.5
20260505210705 9 94 0.0 0.0 0.00 0.00 0.00 84 1010.5
20260505210205 9 94 0.0 0.0 0.00 0.00 0.00 83 1010.5
20260505205704 9 94 0.0 0.0 0.00 0.00 0.00 83 1010.5
20260505204705 9 94 0.0 0.0 0.00 0.00 0.00 82 1010.5
20260505204205 9 94 0.0 0.0 0.00 0.00 0.00 82 1010.5
20260505203704 9 94 0.0 0.0 0.00 0.00 0.00 82 1010.5
20260505203204 9 94 0.0 0.0 0.00 0.00 0.00 82 1010.5
20260505202704 9 94 0.0 0.0 0.00 0.00 0.00 81 1010.4
20260505202205 9 94 0.0 1.6 0.00 0.00 0.00 81 1010.4
20260505201205 9 94 0.0 1.6 0.00 0.00 0.00 81 1010.4
20260505200205 9 94 0.0 0.0 0.00 0.00 0.00 79 1010.3
20260505195704 9 94 0.0 0.0 0.00 0.00 0.00 79 1010.2
20260505195205 10 94 0.0 1.6 0.00 0.00 0.00 78 1010.3
20260505194705 10 94 1.6 3.2 0.00 0.00 0.00 77 1010.3
20260505193705 10 94 0.0 1.6 0.00 0.00 0.00 76 1010.2
20260505193205 10 94 1.6 1.6 0.00 0.00 0.00 75 1010.2
20260505192705 10 94 0.0 1.6 0.00 0.00 0.00 75 1010.2
20260505192205 10 94 1.6 4.8 0.00 0.00 0.00 75 1010.1
20260505185705 11 94 1.6 3.2 0.00 0.00 0.00 72 1009.9
20260505184205 11 94 1.6 4.8 0.00 0.00 0.00 68 1009.8
20260505183705 12 94 3.2 4.8 0.00 0.00 0.00 67 1009.7
20260505183205 12 94 1.6 3.2 0.00 0.00 0.00 67 1009.7
20260505182705 12 94 1.6 4.8 0.00 0.00 0.00 66 1009.8
20260505182205 12 94 3.2 4.8 0.00 0.00 0.00 66 1009.8
20260505181705 12 94 1.6 4.8 0.00 0.00 0.00 66 1009.9
20260505181205 12 94 3.2 4.8 0.00 0.00 0.00 65 1009.8
20260505180205 12 95 3.2 4.8 0.00 0.00 0.00 65 1009.9
20260505175705 12 97 1.6 4.8 0.00 0.00 0.00 64 1009.8
20260505175205 12 87 1.6 4.8 0.00 0.00 0.00 64 1009.9
20260505174705 12 81 4.8 4.8 0.00 0.00 0.00 63 1009.9
20260505174205 13 84 1.6 4.8 0.00 0.00 0.00 63 1009.9
20260505173705 13 80 3.2 4.8 0.00 0.00 0.00 63 1009.9
20260505173205 13 72 3.2 8.0 0.00 0.00 0.00 62 1009.9
20260505172705 13 80 4.8 4.8 0.00 0.00 0.00 62 1009.9
20260505172205 13 59 4.8 8.0 0.00 0.00 0.00 61 1009.9
20260505171704 13 100 4.8 11.3 0.00 0.00 0.00 61 1009.9
20260505171205 13 61 4.8 9.7 0.00 0.00 0.00 61 1010.0
20260505170205 13 81 6.4 16.1 0.00 0.00 0.00 58 1009.9
20260505165705 13 77 6.4 14.5 0.00 0.00 0.00 59 1009.9
20260505165205 13 77 4.8 14.5 0.00 0.00 0.00 58 1009.9
20260505164706 13 78 9.7 14.5 0.00 0.00 0.00 57 1009.9
20260505164205 13 70 8.0 12.9 0.00 0.00 0.00 56 1009.9
20260505163704 13 97 8.0 16.1 0.00 0.00 0.00 57 1009.9
20260505163205 14 81 9.7 19.3 0.00 0.00 0.00 56 1009.9
20260505162705 14 89 9.7 16.1 0.00 0.00 0.00 57 1009.9
20260505162205 14 93 8.0 20.9 0.00 0.00 0.00 56 1010.0
20260505161705 14 61 9.7 19.3 0.00 0.00 0.00 57 1009.9
20260505161205 14 88 9.7 19.3 0.00 0.00 0.00 56 1010.0
20260505160705 14 36 8.0 19.3 0.00 0.00 0.00 56 1009.9
20260505153205 14 56 6.4 16.1 0.00 0.00 0.00 50 1010.1
20260505152705 14 62 8.0 16.1 0.00 0.00 0.00 50 1010.2
20260505152205 15 47 8.0 19.3 0.00 0.00 0.00 51 1010.2
20260505151205 15 43 9.7 16.1 0.00 0.00 0.00 50 1010.1
20260505150205 15 59 9.7 14.5 0.00 0.00 0.00 50 1010.1
20260505124705 15 359 4.8 8.0 0.00 0.00 0.00 60 1010.5
20260505124205 15 347 4.8 12.9 0.00 0.00 0.00 59 1010.6
20260505123705 15 79 4.8 12.9 0.00 0.00 0.00 60 1010.7
20260505123205 15 7 3.2 14.5 0.00 0.00 0.00 59 1010.7
20260505122705 15 2 6.4 12.9 0.00 0.00 0.00 59 1010.7
20260505122205 15 338 4.8 4.8 0.00 0.00 0.00 58 1010.7
20260505121705 15 47 8.0 14.5 0.00 0.00 0.00 61 1010.8
20260505121205 14 38 6.4 14.5 0.00 0.00 0.00 62 1010.8
20260505120205 15 84 9.7 14.5 0.00 0.00 0.00 60 1010.8
20260505115705 15 64 4.8 9.7 0.00 0.00 0.00 60 1010.8
20260505114705 15 332 3.2 16.1 0.00 0.00 0.00 63 1010.7
20260505114205 14 19 3.2 8.0 0.00 0.00 0.00 60 1010.8
20260505113204 14 9 4.8 8.0 0.00 0.00 0.00 62 1010.8
20260505112205 13 70 3.2 8.0 0.00 0.00 0.00 62 1010.9
20260505111705 13 66 6.4 12.9 0.00 0.00 0.00 62 1010.9
20260505110705 14 268 3.2 8.0 0.00 0.00 0.00 62 1011.0
20260505110205 14 2 8.0 14.5 0.00 0.00 0.00 61 1011.0